Vertical_Velocity
2 -4 -4 6 5 -14 3 -3 1 -1 -2 -1 -3 0 1 1 -0 -2 -2 -2 -7 -3 -2 -1 -1 1 -2 -5 -3 -0 -1 -2 -1 -1 -2 -1 0 -0 0 0 0 1 0 -1
-6 -1 9 1 2 -3 -0 -6 -4 3 0 -2 3 -4 3 -1 -2 -0 0 1 1 -2 1 3 2 -1 -2 -2 -2 -1 0 -1 -2 -0 -2 -1 -0 -0 -0 -1 0 1 0 0
-1 21 5 2 2 1 -2 -6 -4 -1 3 2 3 -5 6 -1 1 3 1 -2 0 -1 -1 1 -1 -0 2 -2 -1 -1 -1 -1 -1 -1 -1 -2 -2 -0 1 -3 -2 -2 -1 -0
1 13 -0 1 -0 4 1 1 2 -0 -3 -10 5 -2 0 0 1 8 3 0 1 -5 -4 2 1 0 2 0 1 0 -0 -0 -1 1 -0 0 -1 0 -1 -0 1 -0 -1 -2
9 8 -3 -3 1 2 -3 3 7 7 -1 5 -7 -6 3 -4 0 4 3 3 4 0 -2 1 0 1 3 2 -0 0 -2 1 0 -2 -0 0 2 -2 -0 2 1 2 0 -0
5 11 0 9 12 5 12 4 5 2 4 -5 2 -4 -3 -3 3 -5 2 4 2 -3 -5 2 -1 -2 0 4 0 -1 -1 -0 2 1 1 1 -2 -2 -0 4 0 -2 -3 -1
9 5 10 1 3 7 2 7 -2 -1 -2 -4 4 -12 7 2 1 2 0 -2 2 6 -3 -3 1 1 -1 3 -1 -0 -2 0 0 3 1 2 1 -3 -1 0 0 -4 0 1
5 -19 2 5 0 3 4 5 -3 -5 -6 2 1 -19 6 0 -3 -5 0 0 -1 2 7 1 -4 -2 2 3 1 -1 -1 -1 -1 1 1 1 1 2 3 1 2 -1 1 -1
0 -12 10 -3 13 4 11 -9 15 -1 -1 3 3 -1 -15 2 -1 -5 -8 -6 -1 0 0 5 -2 -0 5 4 3 -4 1 1 -0 1 -1 0 -1 -1 -1 1 1 1 -1 -2
7 4 4 11 7 1 -10 19 1 -0 -7 -6 1 -1 -13 1 8 -2 -3 -2 -8 2 2 4 1 -1 3 2 1 0 -1 -0 0 1 0 -4 -2 -2 -2 -0 -2 -0 -2 -1
11 2 16 13 -19 9 1 -7 -3 -2 -4 -4 -1 -3 0 2 2 -4 4 -0 -6 4 -2 1 2 -1 -1 3 2 4 2 0 -3 -0 -0 -1 1 -1 -2 -1 -2 -0 -1 -3
4 14 4 -4 8 8 -1 2 8 -3 -3 -5 -5 -10 5 1 -7 -3 -7 -1 0 -1 -2 -0 -3 -0 -1 -4 -4 -2 -2 0 -1 -3 -2 -2 4 1 -0 1 0 -1 -1 1
11 -10 10 7 11 -9 -6 6 4 -6 4 -10 -1 -2 3 2 -0 -1 -1 -1 2 6 2 -4 0 -1 1 0 -1 1 0 2 -1 -3 -5 3 9 5 -1 -2 -3 -1 -0 0
13 13 -7 -18 4 7 -14 -5 -1 4 -3 5 -13 -1 -8 -0 0 -6 -6 -3 0 -2 -4 -2 -3 -1 1 -1 -5 1 -2 -4 -4 -8 3 7 11 11 10 3 -3 -13 -5 -2
-7 -3 -2 8 11 11 4 6 1 3 3 -2 2 -10 1 2 -1 -3 -2 -5 -7 -8 1 2 3 0 2 -0 1 -2 -4 -2 3 4 7 9 1 15 24 1 5 5 -6 -8
8 -10 4 5 11 10 -4 8 9 2 2 5 -2 -2 4 4 0 -2 -1 -1 -10 -5 -2 -1 1 3 -1 3 5 3 -1 -2 -2 1 7 13 230 10 1 -9 -1 -1 -2 4
5 -2 5 -16 12 21 16 -11 12 -3 7 11 1 3 -1 -7 -4 2 -0 -3 -5 -7 -6 0 -1 -0 -3 -2 -2 1 -10 -2 -1 4 15 19 11 36 -15 5 0 4 8 -5
-5 1 7 -5 17 8 -15 8 7 3 1 8 -6 0 -10 -3 5 4 -4 -2 -1 0 -0 -2 -2 -1 -3 -5 -2 2 -4 1 -7 11 2 -6 7 4 6 13 5 1 6 -0
-1 -4 -5 -14 7 11 3 7 2 -1 -5 -2 -4 -10 -0 6 1 -9 1 1 3 4 1 -3 3 -2 -3 4 4 -2 -6 0 -8 -3 7 4 -2 2 11 9 4 0 1 1
1 3 5 -1 9 3 0 -7 3 -3 0 -18 -3 13 -9 1 11 5 1 9 10 7 2 -7 -5 4 8 7 -7 4 -2 -0 0 -15 2 6 2 0 7 4 -3 -3 -3 0
-15 5 -4 1 12 13 4 -12 18 -6 -15 -3 3 -4 2 -9 8 12 4 0 2 -2 -2 0 10 2 -4 -1 0 -10 1 0 3 -2 7 1 2 0 0 -1 -0 6 8 3
2 3 4 11 5 -3 6 -2 9 -0 -12 5 10 -0 -2 -1 -8 -5 -4 0 3 8 8 15 -1 -4 2 2 -1 -3 -1 -1 -4 -3 1 -0 1 6 1 -1 -2 8 12 12
9 -1 4 29 -4 14 7 4 5 12 16 9 4 10 7 3 -3 3 1 10 15 7 0 1 -1 5 20 11 -5 4 2 -4 -4 -6 -3 2 -3 1 -4 -6 -8 -2 -8 -14
-18 12 13 36 12 2 -0 1 1 -2 7 4 3 2 -0 -4 4 -1 -7 7 5 2 5 1 5 -8 3 -7 -5 0 1 -1 1 -1 1 -2 -2 -7 -1 -2 -6 3 12 -2
-3 4 19 8 -2 10 7 10 16 4 4 10 7 1 15 15 16 -0 10 -1 -1 5 -0 -4 0 -3 -1 -2 -3 -3 1 -3 -0 -5 1 3 3 -4 1 -3 1 2 -4 -4
-4 -20 -6 -1 -3 10 14 4 2 -2 -3 -3 7 21 4 0 -3 2 -1 -15 -10 -10 2 10 3 8 -2 -3 3 2 1 1 2 1 -2 1 -3 -5 -6 -0 -3 -2 -0 1
Height
5880 5882 5884 5890 5894 5893 5898 5900 5906 5909 5910 5911 5913 5915 5916 5914 5913 5913 5913 5913 5914 5916 5916 5915 5915 5915 5914 5914 5915 5916 5916 5916 5917 5917 5916 5915 5914 5914 5913 5912 5911 5910 5908 5907
5875 5878 5887 5890 5893 5893 5895 5896 5898 5904 5907 5909 5911 5913 5915 5914 5914 5915 5915 5916 5916 5916 5917 5917 5914 5913 5913 5912 5913 5915 5915 5915 5916 5916 5915 5914 5913 5912 5911 5910 5908 5906 5905 5904
5872 5881 5882 5886 5889 5891 5892 5896 5898 5902 5904 5905 5907 5909 5913 5913 5915 5916 5916 5916 5914 5914 5915 5915 5915 5914 5912 5912 5913 5914 5915 5914 5914 5913 5913 5912 5911 5910 5909 5908 5906 5903 5902 5901
5867 5876 5876 5880 5884 5889 5891 5896 5899 5899 5898 5900 5903 5904 5909 5911 5913 5916 5915 5914 5912 5911 5912 5912 5912 5913 5913 5912 5912 5913 5912 5912 5911 5911 5912 5911 5909 5907 5906 5905 5902 5901 5899 5897
5860 5868 5871 5874 5883 5886 5892 5895 5897 5897 5894 5896 5897 5899 5905 5907 5909 5911 5912 5911 5910 5910 5909 5909 5909 5910 5912 5911 5910 5910 5909 5909 5909 5909 5909 5908 5906 5904 5901 5900 5899 5897 5896 5893
5854 5861 5866 5872 5881 5883 5892 5890 5891 5892 5892 5886 5894 5897 5897 5902 5906 5907 5908 5909 5909 5908 5906 5905 5905 5906 5907 5908 5907 5906 5906 5907 5907 5906 5905 5904 5902 5898 5897 5896 5896 5892 5890 5887
5844 5849 5857 5865 5872 5878 5880 5884 5884 5885 5882 5880 5890 5890 5893 5899 5900 5902 5905 5907 5906 5906 5903 5905 5903 5902 5903 5904 5904 5903 5904 5903 5903 5902 5901 5899 5898 5896 5893 5891 5890 5887 5884 5882
5837 5841 5849 5856 5860 5869 5874 5878 5877 5877 5878 5882 5883 5879 5892 5894 5895 5897 5899 5902 5902 5903 5903 5903 5900 5898 5899 5899 5900 5899 5898 5898 5898 5898 5896 5894 5893 5892 5890 5887 5883 5880 5878 5876
5829 5836 5844 5847 5856 5863 5867 5866 5875 5873 5873 5876 5877 5878 5883 5888 5891 5893 5894 5896 5898 5900 5902 5902 5898 5894 5895 5895 5897 5895 5893 5891 5891 5891 5890 5888 5888 5885 5883 5880 5878 5875 5872 5871
5822 5830 5836 5842 5848 5852 5856 5866 5866 5865 5866 5866 5870 5872 5877 5883 5887 5887 5889 5891 5894 5896 5899 5898 5895 5890 5891 5893 5892 5890 5889 5888 5887 5886 5885 5883 5881 5878 5875 5873 5871 5870 5868 5865
5811 5818 5831 5833 5833 5843 5848 5852 5856 5860 5860 5861 5865 5866 5872 5879 5880 5881 5884 5887 5889 5892 5893 5894 5893 5890 5891 5891 5888 5887 5885 5884 5882 5880 5879 5877 5874 5870 5867 5866 5864 5863 5862 5860
5798 5807 5816 5823 5830 5838 5841 5845 5851 5851 5854 5856 5858 5862 5871 5872 5873 5876 5878 5881 5885 5886 5886 5887 5887 5886 5886 5888 5886 5884 5882 5880 5876 5874 5871 5869 5866 5862 5859 5857 5857 5857 5856 5853
5789 5793 5804 5812 5822 5825 5828 5837 5843 5846 5850 5849 5853 5858 5864 5866 5868 5870 5872 5874 5878 5878 5879 5879 5880 5879 5881 5881 5879 5877 5876 5874 5871 5867 5863 5860 5857 5853 5850 5850 5849 5849 5847 5844
5782 5787 5794 5801 5812 5820 5825 5832 5837 5840 5841 5845 5847 5853 5856 5859 5861 5864 5867 5868 5871 5872 5873 5873 5874 5874 5875 5875 5874 5873 5870 5868 5863 5857 5855 5852 5848 5846 5842 5841 5839 5839 5838 5834
5772 5778 5787 5799 5807 5814 5821 5827 5830 5833 5836 5839 5844 5846 5851 5854 5856 5858 5860 5861 5863 5866 5866 5866 5866 5867 5868 5867 5867 5866 5864 5860 5857 5852 5846 5842 5838 5840 5832 5831 5831 5828 5826 5823
5768 5773 5781 5789 5799 5808 5813 5820 5824 5827 5829 5835 5838 5840 5845 5848 5849 5850 5853 5855 5857 5858 5859 5859 5859 5860 5860 5860 5860 5859 5857 5855 5850 5844 5836 5824 5810 5823 5822 5818 5824 5819 5816 5815
5764 5770 5775 5779 5792 5800 5802 5810 5815 5818 5822 5828 5831 5835 5838 5840 5842 5845 5847 5848 5850 5851 5851 5853 5853 5853 5853 5853 5852 5853 5851 5846 5842 5835 5836 5824 5811 5798 5812 5819 5815 5811 5808 5804
5757 5763 5769 5776 5783 5785 5798 5805 5808 5812 5815 5820 5823 5827 5830 5833 5836 5839 5840 5842 5844 5845 5846 5846 5845 5844 5844 5844 5844 5843 5840 5839 5835 5830 5823 5816 5809 5810 5809 5806 5804 5799 5799 5795
5752 5757 5762 5765 5773 5781 5788 5795 5799 5803 5807 5810 5815 5817 5823 5827 5830 5832 5835 5836 5837 5838 5838 5839 5839 5837 5837 5837 5836 5834 5831 5829 5824 5819 5813 5808 5804 5802 5802 5799 5794 5789 5787 5786
5746 5752 5759 5764 5767 5770 5777 5784 5791 5795 5798 5802 5805 5810 5816 5819 5823 5827 5828 5829 5829 5829 5829 5828 5829 5830 5831 5829 5824 5821 5819 5819 5814 5806 5804 5802 5799 5796 5791 5788 5785 5779 5777 5777
5738 5745 5750 5757 5760 5764 5771 5776 5782 5786 5790 5792 5800 5806 5811 5812 5816 5818 5819 5819 5819 5820 5818 5819 5821 5821 5819 5816 5812 5809 5809 5807 5803 5800 5797 5793 5791 5789 5787 5783 5775 5769 5760 5763
5732 5739 5745 5750 5753 5757 5764 5769 5776 5780 5779 5788 5793 5797 5798 5801 5805 5807 5810 5811 5811 5811 5810 5809 5805 5806 5807 5804 5801 5800 5799 5797 5794 5791 5789 5787 5783 5781 5776 5771 5767 5763 5756 5750
5724 5731 5736 5743 5746 5752 5756 5762 5767 5771 5776 5780 5785 5788 5790 5793 5795 5796 5799 5801 5801 5799 5795 5791 5795 5795 5791 5792 5792 5791 5789 5786 5783 5779 5777 5774 5771 5768 5764 5761 5757 5752 5749 5743
5719 5723 5725 5733 5739 5745 5749 5753 5758 5762 5767 5771 5775 5778 5781 5783 5786 5786 5787 5786 5785 5785 5785 5784 5784 5781 5781 5781 5780 5777 5775 5775 5772 5767 5764 5762 5759 5757 5753 5750 5747 5742 5739 5733
5708 5712 5717 5725 5728 5735 5740 5744 5747 5751 5755 5759 5764 5768 5770 5772 5772 5771 5772 5771 5772 5771 5772 5771 5772 5769 5767 5766 5764 5764 5762 5760 5758 5756 5754 5751 5748 5746 5742 5738 5735 5731 5728 5724
5701 5706 5712 5717 5721 5726 5727 5732 5736 5737 5741 5744 5753 5756 5758 5759 5758 5757 5759 5759 5759 5758 5758 5759 5760 5758 5754 5752 5751 5752 5750 5748 5745 5742 5741 5739 5736 5733 5731 5727 5723 5719 5716 5712